Dublin, Ireland

10:19 PM IST on April 30, 2017 (GMT +0100)
Dublin International

Weather History for EIDW - September, 2014

Change the Weather History Date:

Monday, September 29, 2014

  Actual Average Record
Temperature  
Mean Temperature 56 °F -  
Max Temperature 65 °F 57 °F 71 °F (2011)
Min Temperature 48 °F 46 °F 42 °F (2005)
Degree Days  
Heating Degree Days 8    
Growing Degree Days 6 (Base 50)    
Moisture  
Dew Point 56 °F    
Average Humidity 90    
Maximum Humidity 100    
Minimum Humidity 67    
Precipitation  
Precipitation 0.00 in 0.09 in - ()
Sea Level Pressure  
Sea Level Pressure 30.09 in    
Wind  
Wind Speed 6 mph ()    
Max Wind Speed 12 mph    
Max Gust Speed -    
Visibility 7.9 miles    
Events Fog , Rain    
Averages and records for this station are not official NWS values.
T = Trace of Precipitation, MM = Missing Value Source: Averaged Metar Reports

Daily Weather History Graph

Daily Weather History Graph

Search for Another Location

Airport or City:

Trip Planner

Search our weather history database for the weather conditions in past years. The results will help you decide how hot, cold, wet, or windy it might be!

Date:

Astronomy

Sep. 29, 2014 Rise Set
Actual Time 7:22 AM IST 7:06 PM IST
Civil Twilight 6:48 AM IST 7:41 PM IST
Nautical Twilight 6:07 AM IST 8:22 PM IST
Astronomical Twilight 5:25 AM IST 9:04 PM IST
Moon 12:59 PM IST (9/29) 9:50 PM IST (9/29)
Length of Visible Light 12h 53m
Length of Day
11h 44m
Waxing Crescent, 25% of the Moon is Illuminated
Sep 29
Waxing Crescent
Oct 1
First Quarter
Oct 8
Full
Oct 15
Last Quarter
Oct 23
New

Hourly Weather History & Observations

Time (IST) Temp. Dew Point Humidity Pressure Visibility Wind Dir Wind Speed Gust Speed Precip Events Conditions
12:00 AM 59 °F 55 °F 83% 30.13 in 19 mi WSW 6.7 mph - -   Mostly Cloudy
12:00 AM 59.0 °F 55.4 °F 88% 30.12 in 6.2 mi WSW 6.9 mph - N/A   Mostly Cloudy
12:30 AM 57.2 °F 55.4 °F 94% 30.12 in 6.2 mi West 5.8 mph - N/A   Mostly Cloudy
1:00 AM 54 °F 52 °F 90% 30.13 in 25 mi West 4.5 mph - -   Partly Cloudy
1:00 AM 55.4 °F 51.8 °F 88% 30.12 in 6.2 mi West 4.6 mph - N/A   Mostly Cloudy
1:30 AM 55.4 °F 55.4 °F 100% 30.12 in 6.2 mi West 2.3 mph - N/A   Mostly Cloudy
2:00 AM 57 °F 55 °F 92% 30.13 in 25 mi WSW 4.5 mph - -   Scattered Clouds
2:00 AM 57.2 °F 55.4 °F 94% 30.12 in 6.2 mi WSW 4.6 mph - N/A   Mostly Cloudy
2:30 AM 57.2 °F 55.4 °F 94% 30.12 in 6.2 mi WSW 5.8 mph - N/A   Mostly Cloudy
3:00 AM 57 °F 55 °F 92% 30.12 in 25 mi West 6.7 mph - -   Mostly Cloudy
3:00 AM 57.2 °F 55.4 °F 94% 30.09 in 6.2 mi West 6.9 mph - N/A   Mostly Cloudy
4:00 AM 57 °F 55 °F 92% 30.12 in 25 mi West 6.7 mph - -   Mostly Cloudy
4:00 AM 57.2 °F 55.4 °F 94% 30.09 in 6.2 mi West 6.9 mph - N/A   Mostly Cloudy
4:30 AM 57.2 °F 55.4 °F 94% 30.09 in 6.2 mi West 5.8 mph - N/A   Mostly Cloudy
5:00 AM 56 °F 55 °F 95% 30.11 in 25 mi West 4.5 mph - -   Mostly Cloudy
5:00 AM 55.4 °F 55.4 °F 100% 30.09 in 6.2 mi West 3.5 mph - N/A   Mostly Cloudy
5:30 AM 53.6 °F 51.8 °F 94% 30.09 in 6.2 mi West 3.5 mph - N/A   Mostly Cloudy
6:00 AM 51 °F 51 °F 98% 30.11 in 12 mi WNW 4.5 mph - -   Scattered Clouds
6:00 AM 51.8 °F 50.0 °F 94% 30.09 in 6.2 mi WNW 4.6 mph - N/A   Mostly Cloudy
6:30 AM 51.8 °F 51.8 °F 100% 30.09 in 3.1 mi West 3.5 mph - N/A Fog Patches of Fog
7:00 AM 52 °F 51 °F 97% 30.12 in 3 mi WSW 4.5 mph - - Fog Patches of Fog
7:00 AM 51.8 °F 51.8 °F 100% 30.09 in 3.1 mi Variable 3.5 mph - N/A Fog Fog
7:30 AM 48.2 °F 48.2 °F 100% 30.09 in 3.1 mi Variable 2.3 mph - N/A Fog Shallow Fog
8:00 AM 51 °F 50 °F 97% 30.12 in 31 mi WNW 2.2 mph - -   Mostly Cloudy
8:00 AM 51.8 °F 50.0 °F 94% 30.09 in 6.2 mi NW 2.3 mph - N/A Fog Shallow Fog
8:30 AM 51.8 °F 51.8 °F 100% 30.09 in 6.2 mi WNW 4.6 mph - N/A Fog Shallow Fog
9:00 AM 56 °F 56 °F 99% 30.13 in 31 mi North 2.2 mph - -   Scattered Clouds
9:00 AM 55.4 °F 55.4 °F 100% 30.12 in 6.2 mi Variable 2.3 mph - N/A   Scattered Clouds
9:30 AM 57.2 °F 57.2 °F 100% 30.12 in 6.2 mi Variable 1.2 mph - N/A   Mostly Cloudy
10:00 AM 58 °F 56 °F 91% 30.13 in 16 mi NNE 4.5 mph - -   Partly Cloudy
10:00 AM 57.2 °F 57.2 °F 100% 30.12 in 6.2 mi Variable 3.5 mph - N/A   Mostly Cloudy
10:30 AM 59.0 °F 57.2 °F 94% 30.12 in 6.2 mi Variable 2.3 mph - N/A   Mostly Cloudy
11:00 AM 61 °F 56 °F 80% 30.12 in 16 mi East 4.5 mph - -   Partly Cloudy
11:00 AM 60.8 °F 57.2 °F 88% 30.09 in 6.2 mi Variable 3.5 mph - N/A   Mostly Cloudy
11:30 AM 64.4 °F 57.2 °F 77% 30.09 in 6.2 mi ESE 6.9 mph - N/A   Mostly Cloudy
12:00 PM 65 °F 57 °F 67% 30.11 in 16 mi ESE 8.9 mph - -   Scattered Clouds
12:00 PM 64.4 °F 57.2 °F 77% 30.09 in 6.2 mi ESE 9.2 mph - N/A   Mostly Cloudy
12:30 PM 64.4 °F 57.2 °F 77% 30.09 in 6.2 mi SE 8.1 mph - N/A   Mostly Cloudy
1:00 PM 64 °F 56 °F 69% 30.10 in 19 mi ESE 8.9 mph - -   Scattered Clouds
1:00 PM 64.4 °F 57.2 °F 77% 30.09 in 6.2 mi ESE 9.2 mph - N/A   Mostly Cloudy
1:30 PM 64.4 °F 57.2 °F 77% 30.09 in 6.2 mi SE 8.1 mph - N/A   Mostly Cloudy
2:00 PM 64 °F 56 °F 67% 30.09 in 19 mi SE 8.9 mph - -   Scattered Clouds
2:00 PM 64.4 °F 55.4 °F 73% 30.06 in 6.2 mi SE 8.1 mph - N/A   Mostly Cloudy
2:30 PM 64.4 °F 55.4 °F 73% 30.06 in 6.2 mi SE 9.2 mph - N/A   Mostly Cloudy
3:00 PM 62 °F 56 °F 76% 30.09 in 16 mi SE 11.2 mph - - Rain Light Rain Showers
3:00 PM 62.6 °F 57.2 °F 82% 30.06 in 6.2 mi SE 11.5 mph - N/A Rain Light Rain Showers
3:30 PM 60.8 °F 57.2 °F 88% 30.06 in 6.2 mi SE 10.4 mph - N/A Rain Light Rain Showers
4:00 PM 61 °F 59 °F 89% 30.08 in 9 mi ESE 11.2 mph - - Rain Light Rain Showers
4:00 PM 60.8 °F 59.0 °F 94% 30.06 in 6.2 mi ESE 11.5 mph - N/A Rain Light Rain Showers
4:30 PM 60.8 °F 59.0 °F 94% 30.06 in 6.2 mi SE 11.5 mph - N/A   Mostly Cloudy
5:00 PM 61 °F 58 °F 85% 30.07 in 9 mi SE 8.9 mph - - Rain Light Rain Showers
5:00 PM 60.8 °F 57.2 °F 88% 30.06 in 6.2 mi SE 9.2 mph - N/A   Mostly Cloudy
5:30 PM 62.6 °F 57.2 °F 82% 30.04 in 6.2 mi SE 10.4 mph - N/A   Mostly Cloudy
6:00 PM 60 °F 58 °F 89% 30.07 in 12 mi SSE 8.9 mph - -   Mostly Cloudy
6:00 PM 60.8 °F 57.2 °F 88% 30.06 in 6.2 mi SSE 9.2 mph - N/A   Mostly Cloudy
6:30 PM 60.8 °F 57.2 °F 88% 30.04 in 6.2 mi SSE 9.2 mph - N/A   Mostly Cloudy
7:00 PM 60 °F 58 °F 89% 30.06 in 12 mi SE 11.2 mph - -   Partly Cloudy
7:00 PM 59.0 °F 57.2 °F 94% 30.04 in 6.2 mi SE 10.4 mph - N/A   Mostly Cloudy
7:30 PM 59.0 °F 57.2 °F 94% 30.06 in 6.2 mi SE 9.2 mph - N/A   Mostly Cloudy
8:00 PM 59 °F 57 °F 91% 30.06 in 12 mi SSE 6.7 mph - -   Mostly Cloudy
8:00 PM 59.0 °F 57.2 °F 94% 30.06 in 6.2 mi SSE 8.1 mph - N/A   Mostly Cloudy
8:30 PM 59.0 °F 57.2 °F 94% 30.06 in 6.2 mi SE 6.9 mph - N/A   Mostly Cloudy
9:00 PM 59 °F 57 °F 89% 30.07 in 12 mi SE 6.7 mph - -   Mostly Cloudy
9:00 PM 59.0 °F 57.2 °F 94% 30.06 in 6.2 mi SE 6.9 mph - N/A   Mostly Cloudy
9:30 PM 59.0 °F 57.2 °F 94% 30.06 in 6.2 mi SSE 5.8 mph - N/A   Mostly Cloudy
10:00 PM 58 °F 56 °F 92% 30.07 in 11 mi SSE 4.5 mph - -   Mostly Cloudy
10:00 PM 59.0 °F 55.4 °F 88% 30.06 in 6.2 mi SSE 4.6 mph - N/A   Mostly Cloudy
10:30 PM 57.2 °F 55.4 °F 94% 30.06 in 6.2 mi SSE 4.6 mph - N/A   Mostly Cloudy
11:00 PM 59 °F 56 °F 85% 30.07 in 11 mi SSE 4.5 mph - -   Mostly Cloudy
11:00 PM 59.0 °F 55.4 °F 88% 30.06 in 6.2 mi SSE 4.6 mph - N/A   Mostly Cloudy
11:30 PM 59.0 °F 55.4 °F 88% 30.06 in 6.2 mi SW 8.1 mph - N/A   Mostly Cloudy